^^
Saratoga-Weather Station Historical Data
Daily Summary for January 14, 2021 Units:  Both    English   Metric
Daily Weekly Monthly Yearly Custom
  High: Low: Average:
Temperature: 86.7 °F /  30.4 °C 54.7 °F /  12.6 °C 71.1 °F /  21.7 °C
Dew Point: 60.1 °F /  15.6 °C 48 °F /  8.9 °C 52.7 °F /  11.5 °C
Humidity: 79% 32% 55%
Wind Speed: 8.1mph /  13km/h - 1.2mph /  1.9km/h
Wind Gust: 9mph /  14.5km/h - -
Wind- - SSE
Pressure: 30.2 in /  1022.4 hPa 30 in /  1016.3 hPa -
Precipitation: 0 in /  0.0 mm    
Historical Graphs
 
 
Tabular Data for January 14, 2021
Time Temperature Dew Point Pressure Wind Wind Speed Wind Gust Humidity Rainfall Rate (Hourly) solar
00:01 62.8 °F /  17.1 °C 49.6 °F /  9.8 °C 30.2in /  1022.4hPa Calm   1mph /  1.6km/h 62% 0in /  0.0mm 0 W/m2
00:06 62.2 °F /  16.8 °C 48.6 °F /  9.2 °C 30.2in /  1022.4hPa SW 0.9mph /  1.4km/h 1mph /  1.6km/h 61% 0in /  0.0mm 0 W/m2
00:11 62.1 °F /  16.7 °C 49.3 °F /  9.6 °C 30.2in /  1022.4hPa Calm   2mph /  3.2km/h 63% 0in /  0.0mm 0 W/m2
00:16 61.9 °F /  16.6 °C 49.1 °F /  9.5 °C 30.2in /  1022.4hPa Calm   1mph /  1.6km/h 63% 0in /  0.0mm 0 W/m2
00:21 61.5 °F /  16.4 °C 49.3 °F /  9.6 °C 30.2in /  1022.4hPa Calm     64% 0in /  0.0mm 0 W/m2
00:26 61.3 °F /  16.3 °C 49.1 °F /  9.5 °C 30.2in /  1022.4hPa Calm   1mph /  1.6km/h 64% 0in /  0.0mm 0 W/m2
00:31 61.2 °F /  16.2 °C 49.3 °F /  9.6 °C 30.2in /  1022.4hPa Calm     65% 0in /  0.0mm 0 W/m2
00:36 60.8 °F /  16 °C 49.5 °F /  9.7 °C 30.2in /  1022.4hPa Calm   2mph /  3.2km/h 66% 0in /  0.0mm 0 W/m2
00:41 60.4 °F /  15.8 °C 49.1 °F /  9.5 °C 30.2in /  1022.4hPa Calm   1mph /  1.6km/h 66% 0in /  0.0mm 0 W/m2
00:46 60.3 °F /  15.7 °C 48.9 °F /  9.4 °C 30.2in /  1022.4hPa Calm     66% 0in /  0.0mm 0 W/m2
00:51 60.1 °F /  15.6 °C 49.1 °F /  9.5 °C 30.2in /  1022.4hPa Calm   1mph /  1.6km/h 67% 0in /  0.0mm 0 W/m2
00:56 59.7 °F /  15.4 °C 48.7 °F /  9.3 °C 30.2in /  1022.4hPa Calm   2mph /  3.2km/h 67% 0in /  0.0mm 0 W/m2
01:01 59.5 °F /  15.3 °C 48.6 °F /  9.2 °C 30.2in /  1022.4hPa SW 0.9mph /  1.4km/h 1mph /  1.6km/h 67% 0in /  0.0mm 0 W/m2
01:06 59.4 °F /  15.2 °C 48.7 °F /  9.3 °C 30.2in /  1022.4hPa Calm     68% 0in /  0.0mm 0 W/m2
01:11 59.4 °F /  15.2 °C 49.1 °F /  9.5 °C 30.2in /  1022.4hPa Calm     69% 0in /  0.0mm 0 W/m2
01:16 59.2 °F /  15.1 °C 49.1 °F /  9.5 °C 30.2in /  1022.4hPa Calm   1mph /  1.6km/h 69% 0in /  0.0mm 0 W/m2
01:21 58.8 °F /  14.9 °C 49.1 °F /  9.5 °C 30.2in /  1022.4hPa Calm   1mph /  1.6km/h 70% 0in /  0.0mm 0 W/m2
01:26 58.6 °F /  14.8 °C 48.9 °F /  9.4 °C 30.2in /  1022.4hPa SW 0.9mph /  1.4km/h 2mph /  3.2km/h 70% 0in /  0.0mm 0 W/m2
01:31 58.5 °F /  14.7 °C 48.7 °F /  9.3 °C 30.2in /  1022.4hPa Calm   2mph /  3.2km/h 70% 0in /  0.0mm 0 W/m2
01:36 58.5 °F /  14.7 °C 48.7 °F /  9.3 °C 30.2in /  1022.4hPa Calm   1mph /  1.6km/h 70% 0in /  0.0mm 0 W/m2
01:41 58.5 °F /  14.7 °C 49.1 °F /  9.5 °C 30.2in /  1022.4hPa Calm     71% 0in /  0.0mm 0 W/m2
01:46 58.3 °F /  14.6 °C 48.9 °F /  9.4 °C 30.2in /  1022.4hPa Calm     71% 0in /  0.0mm 0 W/m2
01:51 58.3 °F /  14.6 °C 48.9 °F /  9.4 °C 30.2in /  1022.4hPa Calm   2mph /  3.2km/h 71% 0in /  0.0mm 0 W/m2
01:56 58.3 °F /  14.6 °C 48.9 °F /  9.4 °C 30.2in /  1022.4hPa Calm     71% 0in /  0.0mm 0 W/m2
02:01 58.1 °F /  14.5 °C 48.4 °F /  9.1 °C 30.2in /  1022.0hPa Calm   2mph /  3.2km/h 70% 0in /  0.0mm 0 W/m2
02:06 57.9 °F /  14.4 °C 48.2 °F /  9 °C 30.2in /  1022.0hPa Calm   1mph /  1.6km/h 70% 0in /  0.0mm 0 W/m2
02:11 57.9 °F /  14.4 °C 48.2 °F /  9 °C 30.2in /  1022.0hPa Calm   1mph /  1.6km/h 70% 0in /  0.0mm 0 W/m2
02:16 58.1 °F /  14.5 °C 48.7 °F /  9.3 °C 30.2in /  1022.0hPa Calm     71% 0in /  0.0mm 0 W/m2
02:21 57.9 °F /  14.4 °C 48.6 °F /  9.2 °C 30.2in /  1022.0hPa Calm     71% 0in /  0.0mm 0 W/m2
02:26 57.9 °F /  14.4 °C 48.6 °F /  9.2 °C 30.2in /  1022.0hPa SW 2mph /  3.2km/h 2mph /  3.2km/h 71% 0in /  0.0mm 0 W/m2
02:31 57.7 °F /  14.3 °C 48.4 °F /  9.1 °C 30.2in /  1022.0hPa Calm     71% 0in /  0.0mm 0 W/m2
02:36 57.7 °F /  14.3 °C 48.4 °F /  9.1 °C 30.2in /  1022.0hPa Calm     71% 0in /  0.0mm 0 W/m2
02:41 57.7 °F /  14.3 °C 48.4 °F /  9.1 °C 30.2in /  1022.0hPa Calm     71% 0in /  0.0mm 0 W/m2
02:46 57.6 °F /  14.2 °C 48.6 °F /  9.2 °C 30.2in /  1022.0hPa Calm     72% 0in /  0.0mm 0 W/m2
02:51 57.4 °F /  14.1 °C 48 °F /  8.9 °C 30.2in /  1022.0hPa Calm     71% 0in /  0.0mm 0 W/m2
02:56 57.2 °F /  14 °C 48.2 °F /  9 °C 30.2in /  1021.7hPa Calm     72% 0in /  0.0mm 0 W/m2
03:01 57 °F /  13.9 °C 48 °F /  8.9 °C 30.2in /  1021.7hPa Calm     72% 0in /  0.0mm 0 W/m2
03:06 56.8 °F /  13.8 °C 48.2 °F /  9 °C 30.2in /  1021.7hPa Calm     73% 0in /  0.0mm 0 W/m2
03:11 56.7 °F /  13.7 °C 48 °F /  8.9 °C 30.2in /  1021.7hPa Calm     73% 0in /  0.0mm 0 W/m2
03:16 56.5 °F /  13.6 °C 48 °F /  8.9 °C 30.2in /  1021.7hPa Calm     73% 0in /  0.0mm 0 W/m2
03:21 56.5 °F /  13.6 °C 48.4 °F /  9.1 °C 30.2in /  1021.7hPa Calm     74% 0in /  0.0mm 0 W/m2
03:26 56.3 °F /  13.5 °C 48.2 °F /  9 °C 30.2in /  1021.7hPa SW 0.9mph /  1.4km/h 1mph /  1.6km/h 74% 0in /  0.0mm 0 W/m2
03:32 56.3 °F /  13.5 °C 48.6 °F /  9.2 °C 30.2in /  1021.7hPa Calm   1mph /  1.6km/h 75% 0in /  0.0mm 0 W/m2
03:37 56.1 °F /  13.4 °C 48.4 °F /  9.1 °C 30.2in /  1021.7hPa Calm     75% 0in /  0.0mm 0 W/m2
03:42 55.9 °F /  13.3 °C 48.6 °F /  9.2 °C 30.2in /  1021.7hPa Calm     76% 0in /  0.0mm 0 W/m2
03:47 55.9 °F /  13.3 °C 48.2 °F /  9 °C 30.2in /  1021.7hPa Calm     75% 0in /  0.0mm 0 W/m2
03:52 55.8 °F /  13.2 °C 48.4 °F /  9.1 °C 30.2in /  1021.7hPa Calm   1mph /  1.6km/h 76% 0in /  0.0mm 0 W/m2
03:57 55.8 °F /  13.2 °C 48.4 °F /  9.1 °C 30.2in /  1021.7hPa SW 0.9mph /  1.4km/h 1mph /  1.6km/h 76% 0in /  0.0mm 0 W/m2
04:02 55.8 °F /  13.2 °C 48.4 °F /  9.1 °C 30.2in /  1021.7hPa Calm   2mph /  3.2km/h 76% 0in /  0.0mm 0 W/m2
04:07 55.6 °F /  13.1 °C 48.6 °F /  9.2 °C 30.2in /  1021.3hPa Calm   2mph /  3.2km/h 77% 0in /  0.0mm 0 W/m2
04:12 55.6 °F /  13.1 °C 48.6 °F /  9.2 °C 30.2in /  1021.3hPa Calm     77% 0in /  0.0mm 0 W/m2
04:17 55.4 °F /  13 °C 48.7 °F /  9.3 °C 30.2in /  1021.3hPa Calm   1mph /  1.6km/h 78% 0in /  0.0mm 0 W/m2
04:22 55.2 °F /  12.9 °C 48.6 °F /  9.2 °C 30.2in /  1021.3hPa Calm     78% 0in /  0.0mm 0 W/m2
04:27 55 °F /  12.8 °C 48.4 °F /  9.1 °C 30.2in /  1021.3hPa Calm   1mph /  1.6km/h 78% 0in /  0.0mm 0 W/m2
04:32 55 °F /  12.8 °C 48.6 °F /  9.2 °C 30.2in /  1021.3hPa SW 0.9mph /  1.4km/h 1mph /  1.6km/h 79% 0in /  0.0mm 0 W/m2
04:37 55 °F /  12.8 °C 48.4 °F /  9.1 °C 30.2in /  1021.3hPa Calm     78% 0in /  0.0mm 0 W/m2
04:42 55 °F /  12.8 °C 48.6 °F /  9.2 °C 30.2in /  1021.3hPa Calm     79% 0in /  0.0mm 0 W/m2
04:52 54.9 °F /  12.7 °C 48.6 °F /  9.2 °C 30.2in /  1021.3hPa Calm     79% 0in /  0.0mm 0 W/m2
04:57 54.9 °F /  12.7 °C 48.6 °F /  9.2 °C 30.2in /  1021.3hPa Calm     79% 0in /  0.0mm 0 W/m2
05:02 55 °F /  12.8 °C 48.6 °F /  9.2 °C 30.2in /  1021.3hPa Calm     79% 0in /  0.0mm 0 W/m2
05:07 54.9 °F /  12.7 °C 48.6 °F /  9.2 °C 30.2in /  1021.3hPa Calm     79% 0in /  0.0mm 0 W/m2
05:12 54.9 °F /  12.7 °C 48.6 °F /  9.2 °C 30.2in /  1021.3hPa Calm     79% 0in /  0.0mm 0 W/m2
05:17 54.9 °F /  12.7 °C 48.6 °F /  9.2 °C 30.2in /  1021.3hPa Calm     79% 0in /  0.0mm 0 W/m2
05:22 54.7 °F /  12.6 °C 48.4 °F /  9.1 °C 30.2in /  1021.3hPa Calm   1mph /  1.6km/h 79% 0in /  0.0mm 0 W/m2
05:27 54.7 °F /  12.6 °C 48.4 °F /  9.1 °C 30.2in /  1021.3hPa Calm   1mph /  1.6km/h 79% 0in /  0.0mm 0 W/m2
05:32 54.7 °F /  12.6 °C 48.4 °F /  9.1 °C 30.2in /  1021.0hPa SW 0.9mph /  1.4km/h 1mph /  1.6km/h 79% 0in /  0.0mm 5 W/m2
05:37 54.7 °F /  12.6 °C 48.4 °F /  9.1 °C 30.2in /  1021.0hPa SW 0.9mph /  1.4km/h 1mph /  1.6km/h 79% 0in /  0.0mm 7 W/m2
05:42 54.9 °F /  12.7 °C 48.6 °F /  9.2 °C 30.2in /  1021.0hPa Calm   1mph /  1.6km/h 79% 0in /  0.0mm 9 W/m2
05:47 55 °F /  12.8 °C 48.4 °F /  9.1 °C 30.2in /  1021.3hPa Calm     78% 0in /  0.0mm 11 W/m2
05:52 55 °F /  12.8 °C 48.4 °F /  9.1 °C 30.2in /  1021.0hPa Calm     78% 0in /  0.0mm 12 W/m2
05:57 55.2 °F /  12.9 °C 48.6 °F /  9.2 °C 30.2in /  1021.3hPa Calm     78% 0in /  0.0mm 14 W/m2
06:02 55.2 °F /  12.9 °C 48.6 °F /  9.2 °C 30.2in /  1021.3hPa Calm     78% 0in /  0.0mm 16 W/m2
06:07 55.2 °F /  12.9 °C 48.7 °F /  9.3 °C 30.2in /  1021.3hPa Calm     79% 0in /  0.0mm 18 W/m2
06:12 55.2 °F /  12.9 °C 48.7 °F /  9.3 °C 30.2in /  1021.3hPa Calm     79% 0in /  0.0mm 19 W/m2
06:17 55.4 °F /  13 °C 48.9 °F /  9.4 °C 30.2in /  1021.3hPa Calm     79% 0in /  0.0mm 21 W/m2
06:22 55.6 °F /  13.1 °C 49.1 °F /  9.5 °C 30.2in /  1021.3hPa Calm     79% 0in /  0.0mm 23 W/m2
06:27 55.6 °F /  13.1 °C 48.9 °F /  9.4 °C 30.2in /  1021.0hPa Calm     78% 0in /  0.0mm 23 W/m2
06:32 55.8 °F /  13.2 °C 48.7 °F /  9.3 °C 30.2in /  1021.0hPa Calm   1mph /  1.6km/h 77% 0in /  0.0mm 25 W/m2
06:37 55.9 °F /  13.3 °C 48.9 °F /  9.4 °C 30.2in /  1021.0hPa Calm     77% 0in /  0.0mm 26 W/m2
06:42 56.1 °F /  13.4 °C 48.9 °F /  9.4 °C 30.2in /  1021.0hPa Calm   1mph /  1.6km/h 77% 0in /  0.0mm 26 W/m2
06:47 56.5 °F /  13.6 °C 48.9 °F /  9.4 °C 30.2in /  1021.0hPa Calm   2mph /  3.2km/h 76% 0in /  0.0mm 28 W/m2
06:52 56.8 °F /  13.8 °C 48.6 °F /  9.2 °C 30.2in /  1021.0hPa SE 0.9mph /  1.4km/h 2mph /  3.2km/h 74% 0in /  0.0mm 28 W/m2
06:57 57.2 °F /  14 °C 48.9 °F /  9.4 °C 30.2in /  1021.0hPa Calm   1mph /  1.6km/h 74% 0in /  0.0mm 30 W/m2
07:02 57.6 °F /  14.2 °C 48.9 °F /  9.4 °C 30.2in /  1021.0hPa SE 0.9mph /  1.4km/h 1mph /  1.6km/h 73% 0in /  0.0mm 30 W/m2
07:07 57.7 °F /  14.3 °C 48.7 °F /  9.3 °C 30.2in /  1021.0hPa Calm   1mph /  1.6km/h 72% 0in /  0.0mm 30 W/m2
07:12 57.9 °F /  14.4 °C 48.6 °F /  9.2 °C 30.2in /  1021.0hPa SE 0.9mph /  1.4km/h 2mph /  3.2km/h 71% 0in /  0.0mm 32 W/m2
07:17 58.5 °F /  14.7 °C 49.1 °F /  9.5 °C 30.2in /  1021.0hPa Calm   1mph /  1.6km/h 71% 0in /  0.0mm 32 W/m2
07:22 58.6 °F /  14.8 °C 48.9 °F /  9.4 °C 30.2in /  1021.0hPa Calm   1mph /  1.6km/h 70% 0in /  0.0mm 33 W/m2
07:27 58.8 °F /  14.9 °C 49.1 °F /  9.5 °C 30.2in /  1021.0hPa Calm     70% 0in /  0.0mm 33 W/m2
07:32 59.2 °F /  15.1 °C 49.1 °F /  9.5 °C 30.1in /  1020.7hPa Calm   1mph /  1.6km/h 69% 0in /  0.0mm 35 W/m2
07:37 59.4 °F /  15.2 °C 49.1 °F /  9.5 °C 30.1in /  1020.7hPa Calm   2mph /  3.2km/h 69% 0in /  0.0mm 90 W/m2
07:42 59.5 °F /  15.3 °C 49.3 °F /  9.6 °C 30.2in /  1021.0hPa Calm   1mph /  1.6km/h 69% 0in /  0.0mm 246 W/m2
07:47 59.9 °F /  15.5 °C 49.3 °F /  9.6 °C 30.1in /  1020.7hPa ENE 0.9mph /  1.4km/h 1mph /  1.6km/h 68% 0in /  0.0mm 262 W/m2
07:52 61 °F /  16.1 °C 50 °F /  10 °C 30.2in /  1021.0hPa Calm   2mph /  3.2km/h 67% 0in /  0.0mm 274 W/m2
07:57 62.1 °F /  16.7 °C 50.2 °F /  10.1 °C 30.2in /  1021.0hPa Calm   2mph /  3.2km/h 65% 0in /  0.0mm 288 W/m2
08:02 63.1 °F /  17.3 °C 50.7 °F /  10.4 °C 30.2in /  1021.0hPa Calm   1mph /  1.6km/h 64% 0in /  0.0mm 302 W/m2
08:07 63.9 °F /  17.7 °C 50.5 °F /  10.3 °C 30.2in /  1021.0hPa Calm   1mph /  1.6km/h 62% 0in /  0.0mm 295 W/m2
08:12 64.2 °F /  17.9 °C 50.9 °F /  10.5 °C 30.2in /  1021.0hPa NE 2mph /  3.2km/h 3mph /  4.8km/h 62% 0in /  0.0mm 199 W/m2
08:17 64.8 °F /  18.2 °C 51.1 °F /  10.6 °C 30.2in /  1021.0hPa East 0.9mph /  1.4km/h 2mph /  3.2km/h 61% 0in /  0.0mm 67 W/m2
08:22 65.5 °F /  18.6 °C 51.3 °F /  10.7 °C 30.2in /  1021.0hPa ENE 2mph /  3.2km/h 2mph /  3.2km/h 60% 0in /  0.0mm 44 W/m2
08:27 65.8 °F /  18.8 °C 51.1 °F /  10.6 °C 30.2in /  1021.0hPa Calm   3mph /  4.8km/h 59% 0in /  0.0mm 44 W/m2
08:32 65.8 °F /  18.8 °C 51.6 °F /  10.9 °C 30.1in /  1020.7hPa NE 0.9mph /  1.4km/h 2mph /  3.2km/h 60% 0in /  0.0mm 46 W/m2
08:37 66.4 °F /  19.1 °C 51.6 °F /  10.9 °C 30.1in /  1020.7hPa ENE 2.9mph /  4.7km/h 3mph /  4.8km/h 59% 0in /  0.0mm 44 W/m2
08:42 66.6 °F /  19.2 °C 51.3 °F /  10.7 °C 30.1in /  1020.7hPa Calm   3mph /  4.8km/h 58% 0in /  0.0mm 44 W/m2
08:47 66.7 °F /  19.3 °C 51.4 °F /  10.8 °C 30.1in /  1020.7hPa ENE 2.9mph /  4.7km/h 4mph /  6.4km/h 58% 0in /  0.0mm 44 W/m2
08:52 66.7 °F /  19.3 °C 51.4 °F /  10.8 °C 30.1in /  1020.7hPa ESE 0.9mph /  1.4km/h 4mph /  6.4km/h 58% 0in /  0.0mm 44 W/m2
08:57 66.9 °F /  19.4 °C 51.6 °F /  10.9 °C 30.1in /  1020.7hPa ENE 2mph /  3.2km/h 3mph /  4.8km/h 58% 0in /  0.0mm 44 W/m2
09:02 67.5 °F /  19.7 °C 52.2 °F /  11.2 °C 30.1in /  1020.7hPa Calm   4mph /  6.4km/h 58% 0in /  0.0mm 46 W/m2
09:07 67.6 °F /  19.8 °C 52.3 °F /  11.3 °C 30.1in /  1020.7hPa ESE 2.9mph /  4.7km/h 6mph /  9.7km/h 58% 0in /  0.0mm 49 W/m2
09:12 68 °F /  20 °C 53.1 °F /  11.7 °C 30.1in /  1020.7hPa ESE 2mph /  3.2km/h 2mph /  3.2km/h 59% 0in /  0.0mm 172 W/m2
09:17 68.4 °F /  20.2 °C 52.5 °F /  11.4 °C 30.1in /  1020.7hPa North 2mph /  3.2km/h 6mph /  9.7km/h 57% 0in /  0.0mm 378 W/m2
09:22 68 °F /  20 °C 52.2 °F /  11.2 °C 30.1in /  1020.7hPa NE 2.9mph /  4.7km/h 4mph /  6.4km/h 57% 0in /  0.0mm 501 W/m2
09:27 68.2 °F /  20.1 °C 52.9 °F /  11.6 °C 30.1in /  1020.7hPa NE 2mph /  3.2km/h 5mph /  8km/h 58% 0in /  0.0mm 527 W/m2
09:32 68.2 °F /  20.1 °C 52.9 °F /  11.6 °C 30.1in /  1020.7hPa ENE 2mph /  3.2km/h 2mph /  3.2km/h 58% 0in /  0.0mm 541 W/m2
09:37 68.7 °F /  20.4 °C 53.8 °F /  12.1 °C 30.1in /  1020.7hPa ENE 4mph /  6.4km/h 4mph /  6.4km/h 59% 0in /  0.0mm 555 W/m2
09:42 69.3 °F /  20.7 °C 53.4 °F /  11.9 °C 30.1in /  1020.7hPa Calm   2mph /  3.2km/h 57% 0in /  0.0mm 575 W/m2
09:47 69.6 °F /  20.9 °C 53.8 °F /  12.1 °C 30.1in /  1020.7hPa East 0.9mph /  1.4km/h 3mph /  4.8km/h 57% 0in /  0.0mm 587 W/m2
09:52 70 °F /  21.1 °C 54 °F /  12.2 °C 30.1in /  1020.7hPa NNW 2mph /  3.2km/h 4mph /  6.4km/h 57% 0in /  0.0mm 598 W/m2
09:58 70.3 °F /  21.3 °C 54 °F /  12.2 °C 30.1in /  1020.7hPa ESE 2mph /  3.2km/h 3mph /  4.8km/h 56% 0in /  0.0mm 613 W/m2
10:03 71.1 °F /  21.7 °C 53.6 °F /  12 °C 30.1in /  1020.7hPa NNE 4mph /  6.4km/h 5mph /  8km/h 54% 0in /  0.0mm 626 W/m2
10:08 71.6 °F /  22 °C 53.6 °F /  12 °C 30.1in /  1020.7hPa NNE 2mph /  3.2km/h 5mph /  8km/h 53% 0in /  0.0mm 610 W/m2
10:13 71.8 °F /  22.1 °C 53.2 °F /  11.8 °C 30.1in /  1020.7hPa ESE 6mph /  9.7km/h 6mph /  9.7km/h 52% 0in /  0.0mm 49 W/m2
10:18 72.3 °F /  22.4 °C 53.2 °F /  11.8 °C 30.1in /  1020.3hPa NNW 2mph /  3.2km/h 4mph /  6.4km/h 51% 0in /  0.0mm 664 W/m2
10:23 72.7 °F /  22.6 °C 52.3 °F /  11.3 °C 30.1in /  1020.7hPa NNE 2.9mph /  4.7km/h 9mph /  14.5km/h 49% 0in /  0.0mm 677 W/m2
10:28 73 °F /  22.8 °C 53.2 °F /  11.8 °C 30.1in /  1020.7hPa SE 4mph /  6.4km/h 6mph /  9.7km/h 50% 0in /  0.0mm 689 W/m2
10:33 73.2 °F /  22.9 °C 52.9 °F /  11.6 °C 30.1in /  1020.3hPa SE 4mph /  6.4km/h 9mph /  14.5km/h 49% 0in /  0.0mm 701 W/m2
10:38 73.2 °F /  22.9 °C 52.9 °F /  11.6 °C 30.1in /  1020.7hPa ESE 2mph /  3.2km/h 3mph /  4.8km/h 49% 0in /  0.0mm 714 W/m2
10:43 73.4 °F /  23 °C 53.6 °F /  12 °C 30.1in /  1020.7hPa NE 2.9mph /  4.7km/h 4mph /  6.4km/h 50% 0in /  0.0mm 722 W/m2
10:48 73.6 °F /  23.1 °C 52.2 °F /  11.2 °C 30.1in /  1020.7hPa NE 2mph /  3.2km/h 5mph /  8km/h 47% 0in /  0.0mm 733 W/m2
10:53 73.6 °F /  23.1 °C 53.2 °F /  11.8 °C 30.1in /  1020.7hPa ESE 2.9mph /  4.7km/h 8mph /  12.9km/h 49% 0in /  0.0mm 745 W/m2
10:58 73.9 °F /  23.3 °C 53.6 °F /  12 °C 30.1in /  1020.7hPa ESE 2.9mph /  4.7km/h 6mph /  9.7km/h 49% 0in /  0.0mm 758 W/m2
11:03 74.1 °F /  23.4 °C 52.5 °F /  11.4 °C 30.1in /  1020.3hPa ENE 4mph /  6.4km/h 5mph /  8km/h 47% 0in /  0.0mm 763 W/m2
11:08 74.5 °F /  23.6 °C 52.3 °F /  11.3 °C 30.1in /  1020.3hPa ESE 0.9mph /  1.4km/h 7mph /  11.3km/h 46% 0in /  0.0mm 775 W/m2
11:13 74.8 °F /  23.8 °C 53.2 °F /  11.8 °C 30.1in /  1020.3hPa Calm   6mph /  9.7km/h 47% 0in /  0.0mm 788 W/m2
11:18 75 °F /  23.9 °C 52.2 °F /  11.2 °C 30.1in /  1020.3hPa NE 2mph /  3.2km/h 4mph /  6.4km/h 45% 0in /  0.0mm 800 W/m2
11:23 75 °F /  23.9 °C 52.2 °F /  11.2 °C 30.1in /  1020.3hPa ENE 8.1mph /  13km/h 8mph /  12.9km/h 45% 0in /  0.0mm 812 W/m2
11:28 75.6 °F /  24.2 °C 51.4 °F /  10.8 °C 30.1in /  1020.3hPa ENE 0.9mph /  1.4km/h 7mph /  11.3km/h 43% 0in /  0.0mm 814 W/m2
11:33 75.9 °F /  24.4 °C 51.8 °F /  11 °C 30.1in /  1020.3hPa East 2mph /  3.2km/h 3mph /  4.8km/h 43% 0in /  0.0mm 826 W/m2
11:38 76.5 °F /  24.7 °C 52.3 °F /  11.3 °C 30.1in /  1020.0hPa NE 0.9mph /  1.4km/h 3mph /  4.8km/h 43% 0in /  0.0mm 830 W/m2
11:43 76.6 °F /  24.8 °C 52.5 °F /  11.4 °C 30.1in /  1020.0hPa NNE 4mph /  6.4km/h 5mph /  8km/h 43% 0in /  0.0mm 835 W/m2
11:48 76.6 °F /  24.8 °C 52.5 °F /  11.4 °C 30.1in /  1019.6hPa East 2.9mph /  4.7km/h 4mph /  6.4km/h 43% 0in /  0.0mm 844 W/m2
11:53 76.6 °F /  24.8 °C 53.1 °F /  11.7 °C 30.1in /  1019.6hPa Calm   4mph /  6.4km/h 44% 0in /  0.0mm 846 W/m2
11:58 77 °F /  25 °C 54 °F /  12.2 °C 30.1in /  1019.6hPa NE 4.9mph /  7.9km/h 5mph /  8km/h 45% 0in /  0.0mm 858 W/m2
12:03 76.8 °F /  24.9 °C 53.8 °F /  12.1 °C 30.1in /  1019.6hPa East 4.9mph /  7.9km/h 8mph /  12.9km/h 45% 0in /  0.0mm 867 W/m2
12:08 76.6 °F /  24.8 °C 54.3 °F /  12.4 °C 30.1in /  1019.6hPa NNW 4.9mph /  7.9km/h 8mph /  12.9km/h 46% 0in /  0.0mm 874 W/m2
12:13 77 °F /  25 °C 53.4 °F /  11.9 °C 30.1in /  1019.6hPa ESE 4mph /  6.4km/h 6mph /  9.7km/h 44% 0in /  0.0mm 879 W/m2
12:18 77 °F /  25 °C 53.4 °F /  11.9 °C 30.1in /  1019.6hPa East 2.9mph /  4.7km/h 7mph /  11.3km/h 44% 0in /  0.0mm 879 W/m2
12:23 76.8 °F /  24.9 °C 53.8 °F /  12.1 °C 30.1in /  1019.6hPa South 0.9mph /  1.4km/h 2mph /  3.2km/h 45% 0in /  0.0mm 886 W/m2
12:28 76.8 °F /  24.9 °C 55.6 °F /  13.1 °C 30.1in /  1019.6hPa NW 2.9mph /  4.7km/h 4mph /  6.4km/h 48% 0in /  0.0mm 896 W/m2
12:33 77 °F /  25 °C 54 °F /  12.2 °C 30.1in /  1019.6hPa NNW 2mph /  3.2km/h 4mph /  6.4km/h 45% 0in /  0.0mm 905 W/m2
12:38 77.2 °F /  25.1 °C 54.9 °F /  12.7 °C 30.1in /  1019.6hPa ESE 2.9mph /  4.7km/h 4mph /  6.4km/h 46% 0in /  0.0mm 907 W/m2
12:43 77.7 °F /  25.4 °C 55.2 °F /  12.9 °C 30.1in /  1019.6hPa ESE 2mph /  3.2km/h 4mph /  6.4km/h 46% 0in /  0.0mm 909 W/m2
12:48 78.3 °F /  25.7 °C 54 °F /  12.2 °C 30.1in /  1019.6hPa North 2mph /  3.2km/h 3mph /  4.8km/h 43% 0in /  0.0mm 921 W/m2
12:53 78.8 °F /  26 °C 55.6 °F /  13.1 °C 30.1in /  1019.6hPa East 2.9mph /  4.7km/h 6mph /  9.7km/h 45% 0in /  0.0mm 925 W/m2
12:58 79.3 °F /  26.3 °C 54.9 °F /  12.7 °C 30.1in /  1019.3hPa ENE 2mph /  3.2km/h 3mph /  4.8km/h 43% 0in /  0.0mm 928 W/m2
13:03 79.9 °F /  26.6 °C 54.1 °F /  12.3 °C 30.1in /  1019.3hPa East 0.9mph /  1.4km/h 6mph /  9.7km/h 41% 0in /  0.0mm 932 W/m2
13:08 80.1 °F /  26.7 °C 54.9 °F /  12.7 °C 30.1in /  1019.3hPa South 0.9mph /  1.4km/h 3mph /  4.8km/h 42% 0in /  0.0mm 933 W/m2
13:13 80.1 °F /  26.7 °C 54.9 °F /  12.7 °C 30.1in /  1019.3hPa Calm   2mph /  3.2km/h 42% 0in /  0.0mm 942 W/m2
13:18 79.9 °F /  26.6 °C 53.4 °F /  11.9 °C 30.1in /  1019.3hPa North 4mph /  6.4km/h 6mph /  9.7km/h 40% 0in /  0.0mm 942 W/m2
13:23 79.9 °F /  26.6 °C 54.1 °F /  12.3 °C 30.1in /  1019.3hPa East 4mph /  6.4km/h 5mph /  8km/h 41% 0in /  0.0mm 949 W/m2
13:28 79.9 °F /  26.6 °C 54.1 °F /  12.3 °C 30.1in /  1019.3hPa ESE 2.9mph /  4.7km/h 6mph /  9.7km/h 41% 0in /  0.0mm 940 W/m2
13:33 79.7 °F /  26.5 °C 54.5 °F /  12.5 °C 30.1in /  1019.3hPa Calm   5mph /  8km/h 42% 0in /  0.0mm 940 W/m2
13:38 79.7 °F /  26.5 °C 54 °F /  12.2 °C 30.1in /  1019.3hPa East 2mph /  3.2km/h 5mph /  8km/h 41% 0in /  0.0mm 937 W/m2
13:43 79.7 °F /  26.5 °C 53.2 °F /  11.8 °C 30.1in /  1019.3hPa East 2mph /  3.2km/h 7mph /  11.3km/h 40% 0in /  0.0mm 942 W/m2
13:48 80.1 °F /  26.7 °C 54.9 °F /  12.7 °C 30.1in /  1019.3hPa SE 2.9mph /  4.7km/h 4mph /  6.4km/h 42% 0in /  0.0mm 942 W/m2
13:53 80.4 °F /  26.9 °C 54 °F /  12.2 °C 30.1in /  1019.0hPa South 0.9mph /  1.4km/h 6mph /  9.7km/h 40% 0in /  0.0mm 940 W/m2
13:58 81 °F /  27.2 °C 53.6 °F /  12 °C 30.1in /  1019.0hPa ESE 2.9mph /  4.7km/h 6mph /  9.7km/h 39% 0in /  0.0mm 935 W/m2
14:03 81 °F /  27.2 °C 53.6 °F /  12 °C 30.1in /  1019.0hPa East 4mph /  6.4km/h 6mph /  9.7km/h 39% 0in /  0.0mm 933 W/m2
14:08 81 °F /  27.2 °C 54.3 °F /  12.4 °C 30.1in /  1019.0hPa NW 0.9mph /  1.4km/h 4mph /  6.4km/h 40% 0in /  0.0mm 933 W/m2
14:13 81.1 °F /  27.3 °C 55.2 °F /  12.9 °C 30.1in /  1019.0hPa NE 2mph /  3.2km/h 2mph /  3.2km/h 41% 0in /  0.0mm 933 W/m2
14:18 81.1 °F /  27.3 °C 53.8 °F /  12.1 °C 30.1in /  1018.6hPa SW 0.9mph /  1.4km/h 3mph /  4.8km/h 39% 0in /  0.0mm 940 W/m2
14:23 80.8 °F /  27.1 °C 55.6 °F /  13.1 °C 30.1in /  1018.6hPa NE 0.9mph /  1.4km/h 3mph /  4.8km/h 42% 0in /  0.0mm 935 W/m2
14:28 81.1 °F /  27.3 °C 53.8 °F /  12.1 °C 30.1in /  1018.6hPa NNE 2.9mph /  4.7km/h 3mph /  4.8km/h 39% 0in /  0.0mm 935 W/m2
14:33 81.7 °F /  27.6 °C 55 °F /  12.8 °C 30.1in /  1018.6hPa WNW 2.9mph /  4.7km/h 5mph /  8km/h 40% 0in /  0.0mm 937 W/m2
14:38 81.9 °F /  27.7 °C 54.5 °F /  12.5 °C 30.1in /  1018.6hPa WNW 2.9mph /  4.7km/h 4mph /  6.4km/h 39% 0in /  0.0mm 933 W/m2
14:43 81.9 °F /  27.7 °C 53.8 °F /  12.1 °C 30.1in /  1018.6hPa ENE 2.9mph /  4.7km/h 3mph /  4.8km/h 38% 0in /  0.0mm 932 W/m2
14:48 81.9 °F /  27.7 °C 53.8 °F /  12.1 °C 30.1in /  1018.6hPa NW 2mph /  3.2km/h 6mph /  9.7km/h 38% 0in /  0.0mm 930 W/m2
14:53 82 °F /  27.8 °C 53.2 °F /  11.8 °C 30.1in /  1018.6hPa SW 2.9mph /  4.7km/h 8mph /  12.9km/h 37% 0in /  0.0mm 925 W/m2
14:58 82 °F /  27.8 °C 53.2 °F /  11.8 °C 30.1in /  1018.6hPa West 2mph /  3.2km/h 3mph /  4.8km/h 37% 0in /  0.0mm 921 W/m2
15:03 82 °F /  27.8 °C 53.2 °F /  11.8 °C 30.1in /  1018.6hPa East 0.9mph /  1.4km/h 3mph /  4.8km/h 37% 0in /  0.0mm 916 W/m2
15:08 82.2 °F /  27.9 °C 54.1 °F /  12.3 °C 30.1in /  1018.3hPa NNW 2.9mph /  4.7km/h 5mph /  8km/h 38% 0in /  0.0mm 911 W/m2
15:13 82.4 °F /  28 °C 54.3 °F /  12.4 °C 30.1in /  1018.3hPa WNW 6mph /  9.7km/h 6mph /  9.7km/h 38% 0in /  0.0mm 904 W/m2
15:18 82.6 °F /  28.1 °C 53.6 °F /  12 °C 30.1in /  1018.3hPa East 6mph /  9.7km/h 6mph /  9.7km/h 37% 0in /  0.0mm 896 W/m2
15:23 82.4 °F /  28 °C 54.3 °F /  12.4 °C 30.1in /  1018.3hPa East 2mph /  3.2km/h 3mph /  4.8km/h 38% 0in /  0.0mm 891 W/m2
15:28 82.9 °F /  28.3 °C 53.2 °F /  11.8 °C 30.1in /  1018.0hPa NNW 0.9mph /  1.4km/h 3mph /  4.8km/h 36% 0in /  0.0mm 884 W/m2
15:33 83.1 °F /  28.4 °C 53.4 °F /  11.9 °C 30.1in /  1018.0hPa ENE 4.9mph /  7.9km/h 8mph /  12.9km/h 36% 0in /  0.0mm 881 W/m2
15:38 83.1 °F /  28.4 °C 54.1 °F /  12.3 °C 30.1in /  1018.0hPa SE 2mph /  3.2km/h 3mph /  4.8km/h 37% 0in /  0.0mm 872 W/m2
15:43 83.3 °F /  28.5 °C 53.6 °F /  12 °C 30.1in /  1018.0hPa East 2mph /  3.2km/h 6mph /  9.7km/h 36% 0in /  0.0mm 863 W/m2
15:48 83.7 °F /  28.7 °C 53.1 °F /  11.7 °C 30.1in /  1018.0hPa WNW 2.9mph /  4.7km/h 5mph /  8km/h 35% 0in /  0.0mm 858 W/m2
15:53 83.1 °F /  28.4 °C 52.7 °F /  11.5 °C 30.1in /  1018.0hPa WNW 2mph /  3.2km/h 6mph /  9.7km/h 35% 0in /  0.0mm 851 W/m2
15:59 83.1 °F /  28.4 °C 53.4 °F /  11.9 °C 30.1in /  1018.0hPa South 0.9mph /  1.4km/h 3mph /  4.8km/h 36% 0in /  0.0mm 844 W/m2
16:04 83.5 °F /  28.6 °C 53.8 °F /  12.1 °C 30.1in /  1017.6hPa ENE 2mph /  3.2km/h 4mph /  6.4km/h 36% 0in /  0.0mm 835 W/m2
16:09 83.5 °F /  28.6 °C 53.8 °F /  12.1 °C 30.1in /  1017.6hPa WSW 2.9mph /  4.7km/h 4mph /  6.4km/h 36% 0in /  0.0mm 824 W/m2
16:14 84 °F /  28.9 °C 55.8 °F /  13.2 °C 30.1in /  1017.6hPa West 2mph /  3.2km/h 3mph /  4.8km/h 38% 0in /  0.0mm 814 W/m2
16:19 84.4 °F /  29.1 °C 53.8 °F /  12.1 °C 30.1in /  1017.6hPa WNW 2.9mph /  4.7km/h 4mph /  6.4km/h 35% 0in /  0.0mm 805 W/m2
16:24 84.4 °F /  29.1 °C 53.8 °F /  12.1 °C 30.1in /  1017.6hPa East 0.9mph /  1.4km/h 2mph /  3.2km/h 35% 0in /  0.0mm 795 W/m2
16:29 84.6 °F /  29.2 °C 55.4 °F /  13 °C 30.1in /  1017.6hPa WNW 4mph /  6.4km/h 4mph /  6.4km/h 37% 0in /  0.0mm 786 W/m2
16:34 84.7 °F /  29.3 °C 54.9 °F /  12.7 °C 30in /  1017.3hPa ESE 0.9mph /  1.4km/h 4mph /  6.4km/h 36% 0in /  0.0mm 775 W/m2
16:39 85.3 °F /  29.6 °C 54.5 °F /  12.5 °C 30in /  1017.3hPa ESE 2mph /  3.2km/h 2mph /  3.2km/h 35% 0in /  0.0mm 763 W/m2
16:44 85.5 °F /  29.7 °C 54 °F /  12.2 °C 30in /  1017.3hPa SW 2mph /  3.2km/h 3mph /  4.8km/h 34% 0in /  0.0mm 754 W/m2
16:49 85.5 °F /  29.7 °C 53.1 °F /  11.7 °C 30in /  1017.3hPa East 0.9mph /  1.4km/h 3mph /  4.8km/h 33% 0in /  0.0mm 742 W/m2
16:54 85.6 °F /  29.8 °C 54 °F /  12.2 °C 30in /  1017.3hPa ESE 0.9mph /  1.4km/h 2mph /  3.2km/h 34% 0in /  0.0mm 726 W/m2
16:59 85.6 °F /  29.8 °C 54.9 °F /  12.7 °C 30in /  1017.3hPa Calm   4mph /  6.4km/h 35% 0in /  0.0mm 719 W/m2
17:04 86 °F /  30 °C 52.7 °F /  11.5 °C 30in /  1017.3hPa NE 2mph /  3.2km/h 3mph /  4.8km/h 32% 0in /  0.0mm 705 W/m2
17:09 86.2 °F /  30.1 °C 55.4 °F /  13 °C 30in /  1017.3hPa NNW 2mph /  3.2km/h 2mph /  3.2km/h 35% 0in /  0.0mm 691 W/m2
17:14 86.4 °F /  30.2 °C 54.7 °F /  12.6 °C 30in /  1017.3hPa NNE 0.9mph /  1.4km/h 4mph /  6.4km/h 34% 0in /  0.0mm 680 W/m2
17:19 86.7 °F /  30.4 °C 55.8 °F /  13.2 °C 30in /  1017.3hPa WNW 2mph /  3.2km/h 2mph /  3.2km/h 35% 0in /  0.0mm 670 W/m2
17:24 86.4 °F /  30.2 °C 53.1 °F /  11.7 °C 30in /  1017.3hPa NNW 2.9mph /  4.7km/h 5mph /  8km/h 32% 0in /  0.0mm 656 W/m2
17:29 85.6 °F /  29.8 °C 53.2 °F /  11.8 °C 30in /  1017.3hPa NW 4mph /  6.4km/h 7mph /  11.3km/h 33% 0in /  0.0mm 643 W/m2
17:34 85.3 °F /  29.6 °C 52.9 °F /  11.6 °C 30in /  1016.9hPa NNW 2mph /  3.2km/h 4mph /  6.4km/h 33% 0in /  0.0mm 631 W/m2
17:39 85.1 °F /  29.5 °C 54.3 °F /  12.4 °C 30in /  1016.9hPa Calm   5mph /  8km/h 35% 0in /  0.0mm 619 W/m2
17:44 85.6 °F /  29.8 °C 54 °F /  12.2 °C 30in /  1016.9hPa ENE 0.9mph /  1.4km/h 4mph /  6.4km/h 34% 0in /  0.0mm 605 W/m2
17:49 85.8 °F /  29.9 °C 55 °F /  12.8 °C 30in /  1016.9hPa ENE 4mph /  6.4km/h 4mph /  6.4km/h 35% 0in /  0.0mm 591 W/m2
17:54 85.6 °F /  29.8 °C 54.9 °F /  12.7 °C 30in /  1016.9hPa Calm   2mph /  3.2km/h 35% 0in /  0.0mm 577 W/m2
17:59 85.6 °F /  29.8 °C 54.9 °F /  12.7 °C 30in /  1016.9hPa NNW 4mph /  6.4km/h 4mph /  6.4km/h 35% 0in /  0.0mm 566 W/m2
18:04 85.6 °F /  29.8 °C 55.6 °F /  13.1 °C 30in /  1016.9hPa ENE 2mph /  3.2km/h 5mph /  8km/h 36% 0in /  0.0mm 550 W/m2
18:09 85.6 °F /  29.8 °C 54 °F /  12.2 °C 30in /  1016.6hPa NNW 0.9mph /  1.4km/h 2mph /  3.2km/h 34% 0in /  0.0mm 533 W/m2
18:14 85.6 °F /  29.8 °C 54 °F /  12.2 °C 30in /  1016.9hPa West 0.9mph /  1.4km/h 4mph /  6.4km/h 34% 0in /  0.0mm 520 W/m2
18:19 85.5 °F /  29.7 °C 54 °F /  12.2 °C 30in /  1016.6hPa NE 0.9mph /  1.4km/h 4mph /  6.4km/h 34% 0in /  0.0mm 494 W/m2
18:24 84.9 °F /  29.4 °C 54.1 °F /  12.3 °C 30in /  1016.9hPa NNW 0.9mph /  1.4km/h 5mph /  8km/h 35% 0in /  0.0mm 459 W/m2
18:29 84.7 °F /  29.3 °C 54.1 °F /  12.3 °C 30in /  1016.6hPa WNW 2mph /  3.2km/h 3mph /  4.8km/h 35% 0in /  0.0mm 425 W/m2
18:34 84.9 °F /  29.4 °C 53.4 °F /  11.9 °C 30in /  1016.6hPa ENE 2.9mph /  4.7km/h 6mph /  9.7km/h 34% 0in /  0.0mm 385 W/m2
18:39 85.1 °F /  29.5 °C 54.3 °F /  12.4 °C 30in /  1016.6hPa NNW 2mph /  3.2km/h 6mph /  9.7km/h 35% 0in /  0.0mm 360 W/m2
18:44 85.3 °F /  29.6 °C 54.5 °F /  12.5 °C 30in /  1016.6hPa ENE 4mph /  6.4km/h 5mph /  8km/h 35% 0in /  0.0mm 339 W/m2
18:49 85.3 °F /  29.6 °C 54.5 °F /  12.5 °C 30in /  1016.6hPa Calm   5mph /  8km/h 35% 0in /  0.0mm 308 W/m2
18:54 85.5 °F /  29.7 °C 56.3 °F /  13.5 °C 30in /  1016.6hPa Calm   1mph /  1.6km/h 37% 0in /  0.0mm 281 W/m2
18:59 85.5 °F /  29.7 °C 54 °F /  12.2 °C 30in /  1016.6hPa ENE 2.9mph /  4.7km/h 3mph /  4.8km/h 34% 0in /  0.0mm 278 W/m2
19:04 85.6 °F /  29.8 °C 54 °F /  12.2 °C 30in /  1016.6hPa ESE 2mph /  3.2km/h 3mph /  4.8km/h 34% 0in /  0.0mm 294 W/m2
19:09 85.6 °F /  29.8 °C 54 °F /  12.2 °C 30in /  1016.6hPa ESE 0.9mph /  1.4km/h 4mph /  6.4km/h 34% 0in /  0.0mm 315 W/m2
19:14 85.6 °F /  29.8 °C 54.9 °F /  12.7 °C 30in /  1016.6hPa ENE 2mph /  3.2km/h 3mph /  4.8km/h 35% 0in /  0.0mm 332 W/m2
19:19 85.8 °F /  29.9 °C 55 °F /  12.8 °C 30in /  1016.6hPa NNW 2.9mph /  4.7km/h 3mph /  4.8km/h 35% 0in /  0.0mm 327 W/m2
19:24 85.8 °F /  29.9 °C 54.1 °F /  12.3 °C 30in /  1016.6hPa NNW 0.9mph /  1.4km/h 2mph /  3.2km/h 34% 0in /  0.0mm 315 W/m2
19:29 85.8 °F /  29.9 °C 54.1 °F /  12.3 °C 30in /  1016.6hPa WNW 0.9mph /  1.4km/h 3mph /  4.8km/h 34% 0in /  0.0mm 295 W/m2
19:34 85.6 °F /  29.8 °C 54.9 °F /  12.7 °C 30in /  1016.3hPa NNW 0.9mph /  1.4km/h 2mph /  3.2km/h 35% 0in /  0.0mm 264 W/m2
19:39 85.8 °F /  29.9 °C 55.8 °F /  13.2 °C 30in /  1016.3hPa Calm   2mph /  3.2km/h 36% 0in /  0.0mm 221 W/m2
19:44 86 °F /  30 °C 55.2 °F /  12.9 °C 30in /  1016.6hPa WNW 2.9mph /  4.7km/h 4mph /  6.4km/h 35% 0in /  0.0mm 193 W/m2
19:49 85.6 °F /  29.8 °C 54 °F /  12.2 °C 30in /  1016.6hPa NW 2mph /  3.2km/h 3mph /  4.8km/h 34% 0in /  0.0mm 186 W/m2
19:54 85.3 °F /  29.6 °C 56.1 °F /  13.4 °C 30in /  1016.6hPa Calm   2mph /  3.2km/h 37% 0in /  0.0mm 188 W/m2
19:59 85.3 °F /  29.6 °C 55.2 °F /  12.9 °C 30in /  1016.6hPa Calm   3mph /  4.8km/h 36% 0in /  0.0mm 185 W/m2
20:04 85.1 °F /  29.5 °C 54.3 °F /  12.4 °C 30in /  1016.6hPa NNW 2mph /  3.2km/h 3mph /  4.8km/h 35% 0in /  0.0mm 171 W/m2
20:14 84.7 °F /  29.3 °C 54.9 °F /  12.7 °C 30in /  1016.6hPa West 2mph /  3.2km/h 3mph /  4.8km/h 36% 0in /  0.0mm 142 W/m2
20:19 84.7 °F /  29.3 °C 59.2 °F /  15.1 °C 30in /  1016.6hPa West 0.9mph /  1.4km/h 1mph /  1.6km/h 42% 0in /  0.0mm 128 W/m2
20:24 84.4 °F /  29.1 °C 59.4 °F /  15.2 °C 30in /  1016.6hPa Calm   3mph /  4.8km/h 43% 0in /  0.0mm 118 W/m2
20:29 83.8 °F /  28.8 °C 59.5 °F /  15.3 °C 30in /  1016.3hPa Calm   2mph /  3.2km/h 44% 0in /  0.0mm 97 W/m2
20:34 83.5 °F /  28.6 °C 59.4 °F /  15.2 °C 30in /  1016.6hPa Calm     44% 0in /  0.0mm 79 W/m2
20:39 82.9 °F /  28.3 °C 59.4 °F /  15.2 °C 30in /  1016.6hPa WSW 2mph /  3.2km/h 3mph /  4.8km/h 45% 0in /  0.0mm 74 W/m2
20:44 82.4 °F /  28 °C 60.1 °F /  15.6 °C 30in /  1016.6hPa Calm     47% 0in /  0.0mm 67 W/m2
20:49 82 °F /  27.8 °C 59.2 °F /  15.1 °C 30in /  1016.6hPa SSW 2mph /  3.2km/h 3mph /  4.8km/h 46% 0in /  0.0mm 62 W/m2
20:54 81.7 °F /  27.6 °C 59.5 °F /  15.3 °C 30in /  1016.6hPa SSW 0.9mph /  1.4km/h 1mph /  1.6km/h 47% 0in /  0.0mm 54 W/m2
20:59 81.3 °F /  27.4 °C 59.7 °F /  15.4 °C 30in /  1016.6hPa Calm   3mph /  4.8km/h 48% 0in /  0.0mm 46 W/m2
21:04 81.1 °F /  27.3 °C 60.1 °F /  15.6 °C 30in /  1016.6hPa SSW 0.9mph /  1.4km/h 1mph /  1.6km/h 49% 0in /  0.0mm 37 W/m2
21:09 81 °F /  27.2 °C 60.1 °F /  15.6 °C 30in /  1016.6hPa Calm     49% 0in /  0.0mm 28 W/m2
21:14 80.4 °F /  26.9 °C 59.5 °F /  15.3 °C 30in /  1016.6hPa Calm     49% 0in /  0.0mm 16 W/m2
21:19 79.2 °F /  26.2 °C 59.5 °F /  15.3 °C 30in /  1016.6hPa Calm     51% 0in /  0.0mm 14 W/m2
21:24 78.1 °F /  25.6 °C 59 °F /  15 °C 30in /  1016.6hPa Calm     52% 0in /  0.0mm 12 W/m2
21:29 77.4 °F /  25.2 °C 58.3 °F /  14.6 °C 30in /  1016.6hPa Calm     52% 0in /  0.0mm 9 W/m2
21:34 76.8 °F /  24.9 °C 58.5 °F /  14.7 °C 30in /  1016.6hPa Calm     53% 0in /  0.0mm 7 W/m2
21:39 76.3 °F /  24.6 °C 58.5 °F /  14.7 °C 30in /  1016.6hPa Calm     54% 0in /  0.0mm 5 W/m2
21:44 75.6 °F /  24.2 °C 57.7 °F /  14.3 °C 30in /  1016.9hPa Calm     54% 0in /  0.0mm 0 W/m2
21:49 74.8 °F /  23.8 °C 58.1 °F /  14.5 °C 30in /  1016.9hPa Calm     56% 0in /  0.0mm 0 W/m2
21:54 74.1 °F /  23.4 °C 57.4 °F /  14.1 °C 30in /  1016.9hPa Calm     56% 0in /  0.0mm 0 W/m2
21:59 73.4 °F /  23 °C 57.2 °F /  14 °C 30in /  1016.9hPa Calm     57% 0in /  0.0mm 0 W/m2
22:04 72.9 °F /  22.7 °C 57.2 °F /  14 °C 30in /  1016.9hPa Calm     58% 0in /  0.0mm 0 W/m2
22:09 72.3 °F /  22.4 °C 57.2 °F /  14 °C 30in /  1016.9hPa Calm     59% 0in /  0.0mm 0 W/m2
22:14 71.8 °F /  22.1 °C 57.2 °F /  14 °C 30in /  1016.9hPa Calm     60% 0in /  0.0mm 0 W/m2
22:19 71.2 °F /  21.8 °C 57 °F /  13.9 °C 30in /  1016.9hPa Calm     61% 0in /  0.0mm 0 W/m2
22:24 70.9 °F /  21.6 °C 57.2 °F /  14 °C 30in /  1016.9hPa Calm     62% 0in /  0.0mm 0 W/m2
22:29 70.5 °F /  21.4 °C 57.4 °F /  14.1 °C 30in /  1016.9hPa Calm     63% 0in /  0.0mm 0 W/m2
22:34 70.3 °F /  21.3 °C 57.2 °F /  14 °C 30in /  1016.9hPa Calm     63% 0in /  0.0mm 0 W/m2
22:39 70 °F /  21.1 °C 57.2 °F /  14 °C 30in /  1016.9hPa Calm     64% 0in /  0.0mm 0 W/m2
22:44 69.6 °F /  20.9 °C 57.4 °F /  14.1 °C 30in /  1016.9hPa Calm     65% 0in /  0.0mm 0 W/m2
22:49 69.3 °F /  20.7 °C 57.4 °F /  14.1 °C 30in /  1016.9hPa Calm     66% 0in /  0.0mm 0 W/m2
22:54 69.1 °F /  20.6 °C 57.2 °F /  14 °C 30in /  1016.9hPa Calm     66% 0in /  0.0mm 0 W/m2
22:59 68.7 °F /  20.4 °C 56.8 °F /  13.8 °C 30in /  1016.9hPa Calm     66% 0in /  0.0mm 0 W/m2
23:04 68.5 °F /  20.3 °C 57.2 °F /  14 °C 30in /  1016.9hPa Calm     67% 0in /  0.0mm 0 W/m2
23:10 68.4 °F /  20.2 °C 57 °F /  13.9 °C 30in /  1016.9hPa Calm     67% 0in /  0.0mm 0 W/m2
23:15 68.2 °F /  20.1 °C 56.8 °F /  13.8 °C 30in /  1016.9hPa Calm     67% 0in /  0.0mm 0 W/m2
23:20 68.2 °F /  20.1 °C 57.2 °F /  14 °C 30in /  1016.9hPa Calm     68% 0in /  0.0mm 0 W/m2
23:25 67.8 °F /  19.9 °C 56.8 °F /  13.8 °C 30in /  1016.9hPa Calm     68% 0in /  0.0mm 0 W/m2
23:30 67.6 °F /  19.8 °C 56.7 °F /  13.7 °C 30in /  1016.9hPa Calm     68% 0in /  0.0mm 0 W/m2
23:35 67.6 °F /  19.8 °C 56.7 °F /  13.7 °C 30in /  1016.9hPa Calm     68% 0in /  0.0mm 0 W/m2
23:40 67.5 °F /  19.7 °C 56.5 °F /  13.6 °C 30in /  1016.9hPa Calm   1mph /  1.6km/h 68% 0in /  0.0mm 0 W/m2
23:45 67.3 °F /  19.6 °C 56.3 °F /  13.5 °C 30in /  1016.9hPa SSW 0.9mph /  1.4km/h 1mph /  1.6km/h 68% 0in /  0.0mm 0 W/m2
23:50 67.3 °F /  19.6 °C 56.3 °F /  13.5 °C 30in /  1016.9hPa Calm     68% 0in /  0.0mm 0 W/m2
23:55 67.1 °F /  19.5 °C 56.7 °F /  13.7 °C 30in /  1016.9hPa SSW 0.9mph /  1.4km/h 1mph /  1.6km/h 69% 0in /  0.0mm 0 W/m2
Juneau County Weather
Compliments of Weather Underground - 2 mb